Location: Newark
(48.4472°N, 1.4892°E)
Time: 10:18:46
(UTC+00:00)

Transit 4A - Pass Details

Date: 24 January 2021
Orbit: 866 x 978 km, 66.8° (Epoch: 26 February)

Event Time Altitude Azimuth Distance (km) Brightness Sun altitude
Exits shadow 04:28:35 14° 176° (S) 2,293 9.9 -30.3°
Drops below altitude 10° 04:29:24 10° 173° (S) 2,574 10.2 -30.1°
Sets 04:31:56 0° 167° (SSE) 3,495 11.0 -29.7°
